Time,TemperatureF,DewpointF,PressureIn,WindDirection,WindDirectionDegrees,WindSpeedMPH,WindSpeedGustMPH,Humidity,HourlyPrecipIn,Conditions,Clouds,dailyrainin,SoftwareType,DateUTC
2013-04-28 00:01:00,75.4,39.1,30.25,NE,45,2.3,0.0,27,0.00,CLR,,0.00,WeatherDisplay:10.37,2013-04-28 04:01:00,
2013-04-28 00:02:00,75.4,39.1,30.25,NE,45,2.3,0.0,27,0.00,CLR,,0.00,WeatherDisplay:10.37,2013-04-28 04:02:00,
2013-04-28 00:07:00,75.4,39.1,30.25,North,0,2.3,0.0,27,0.00,CLR,,0.00,WeatherDisplay:10.37,2013-04-28 04:07:00,
2013-04-28 00:12:00,55.8,40.7,30.24,NW,315,1.1,0.0,57,0.00,CLR,,0.00,WeatherDisplay:10.37,2013-04-28 04:12:00,
2013-04-28 00:17:00,55.9,40.9,30.25,North,0,1.1,1.1,57,0.00,CLR,,0.00,WeatherDisplay:10.37,2013-04-28 04:17:00,
2013-04-28 00:22:00,55.9,40.9,30.25,East,90,1.1,0.0,57,0.00,CLR,,0.00,WeatherDisplay:10.37,2013-04-28 04:22:00,
2013-04-28 00:27:00,55.9,40.9,30.24,East,90,1.1,0.0,57,0.00,CLR,,0.00,WeatherDisplay:10.37,2013-04-28 04:27:00,
2013-04-28 00:32:00,55.8,40.7,30.25,North,0,1.1,0.0,57,0.00,CLR,,0.00,WeatherDisplay:10.37,2013-04-28 04:32:00,
2013-04-28 00:37:00,55.8,40.7,30.24,SE,135,1.1,0.0,57,0.00,CLR,,0.00,WeatherDisplay:10.37,2013-04-28 04:37:00,
2013-04-28 00:42:00,55.6,40.6,30.24,South,180,1.1,1.1,57,0.00,CLR,,0.00,WeatherDisplay:10.37,2013-04-28 04:42:00,
2013-04-28 00:47:00,55.6,40.1,30.24,East,90,1.1,0.0,56,0.00,CLR,,0.00,WeatherDisplay:10.37,2013-04-28 04:47:00,
2013-04-28 00:52:00,55.6,40.1,30.24,SE,135,1.1,1.1,56,0.00,CLR,,0.00,WeatherDisplay:10.37,2013-04-28 04:52:00,
2013-04-28 00:57:00,55.6,40.1,30.24,SE,135,1.1,0.0,56,0.00,CLR,,0.00,WeatherDisplay:10.37,2013-04-28 04:57:00,
2013-04-28 01:02:00,55.6,39.7,30.24,West,270,2.3,2.3,55,0.00,CLR,,0.00,WeatherDisplay:10.37,2013-04-28 05:02:00,
2013-04-28 01:07:00,55.8,39.8,30.24,NE,45,2.3,2.3,55,0.00,CLR,,0.00,WeatherDisplay:10.37,2013-04-28 05:07:00,
2013-04-28 01:12:00,55.8,39.8,30.24,West,270,0.0,0.0,55,0.00,CLR,,0.00,WeatherDisplay:10.37,2013-04-28 05:12:00,
2013-04-28 01:17:00,55.8,40.3,30.24,North,0,1.1,0.0,56,0.00,CLR,,0.00,WeatherDisplay:10.37,2013-04-28 05:17:00,
2013-04-28 01:22:00,55.8,40.3,30.24,SW,225,1.1,0.0,56,0.00,CLR,,0.00,WeatherDisplay:10.37,2013-04-28 05:22:00,
2013-04-28 01:27:00,55.6,40.1,30.24,East,90,1.1,1.1,56,0.00,CLR,,0.00,WeatherDisplay:10.37,2013-04-28 05:27:00,
2013-04-28 01:32:00,55.8,40.3,30.24,East,90,2.3,2.3,56,0.00,CLR,,0.00,WeatherDisplay:10.37,2013-04-28 05:32:00,
2013-04-28 01:37:00,55.8,40.3,30.24,SW,225,1.1,0.0,56,0.00,CLR,,0.00,WeatherDisplay:10.37,2013-04-28 05:37:00,
2013-04-28 01:42:00,55.6,40.6,30.24,NW,315,1.1,0.0,57,0.00,CLR,,0.00,WeatherDisplay:10.37,2013-04-28 05:42:00,
2013-04-28 01:47:00,55.4,40.9,30.24,West,270,2.3,0.0,58,0.00,CLR,,0.00,WeatherDisplay:10.37,2013-04-28 05:47:00,
2013-04-28 01:52:00,55.2,40.7,30.24,SE,135,1.1,0.0,58,0.00,CLR,,0.00,WeatherDisplay:10.37,2013-04-28 05:52:00,
2013-04-28 01:57:00,54.9,41.2,30.24,South,180,2.3,2.3,60,0.00,CLR,,0.00,WeatherDisplay:10.37,2013-04-28 05:57:00,
2013-04-28 02:02:00,54.3,41.6,30.24,SE,135,3.1,3.1,62,0.00,CLR,,0.00,WeatherDisplay:10.37,2013-04-28 06:02:00,
2013-04-28 02:07:00,54.0,40.8,30.24,South,180,1.1,0.0,61,0.00,CLR,,0.00,WeatherDisplay:10.37,2013-04-28 06:07:00,
2013-04-28 02:12:00,53.6,40.5,30.24,South,180,0.0,0.0,61,0.00,CLR,,0.00,WeatherDisplay:10.37,2013-04-28 06:12:00,
2013-04-28 02:17:00,53.4,40.3,30.24,NW,315,0.0,0.0,61,0.00,CLR,,0.00,WeatherDisplay:10.37,2013-04-28 06:17:00,
2013-04-28 02:22:00,53.4,40.7,30.23,North,0,1.1,1.1,62,0.00,CLR,,0.00,WeatherDisplay:10.37,2013-04-28 06:22:00,
2013-04-28 02:27:00,53.6,40.5,30.23,NW,315,2.3,0.0,61,0.00,CLR,,0.00,WeatherDisplay:10.37,2013-04-28 06:27:00,
2013-04-28 02:32:00,53.4,40.3,30.23,North,0,1.1,0.0,61,0.00,CLR,,0.00,WeatherDisplay:10.37,2013-04-28 06:32:00,
2013-04-28 02:37:00,53.1,40.0,30.22,South,180,0.0,0.0,61,0.00,CLR,,0.00,WeatherDisplay:10.37,2013-04-28 06:37:00,
2013-04-28 02:42:00,53.1,40.8,30.22,SE,135,1.1,0.0,63,0.00,CLR,,0.00,WeatherDisplay:10.37,2013-04-28 06:42:00,
2013-04-28 02:47:00,52.9,41.0,30.22,East,90,2.3,0.0,64,0.00,CLR,,0.00,WeatherDisplay:10.37,2013-04-28 06:47:00,
2013-04-28 02:52:00,52.7,40.9,30.22,South,180,0.0,0.0,64,0.00,CLR,,0.00,WeatherDisplay:10.37,2013-04-28 06:52:00,
2013-04-28 02:57:00,52.9,41.4,30.21,East,90,3.5,3.5,65,0.00,CLR,,0.00,WeatherDisplay:10.37,2013-04-28 06:57:00,
2013-04-28 03:02:00,53.2,41.4,30.20,East,90,3.5,3.5,64,0.00,CLR,,0.00,WeatherDisplay:10.37,2013-04-28 07:02:00,
2013-04-28 03:07:00,53.6,41.3,30.20,East,90,1.1,0.0,63,0.00,CLR,,0.00,WeatherDisplay:10.37,2013-04-28 07:07:00,
2013-04-28 03:12:00,53.6,41.3,30.20,South,180,1.1,0.0,63,0.00,CLR,,0.00,WeatherDisplay:10.37,2013-04-28 07:12:00,
2013-04-28 03:17:00,53.6,41.3,30.20,NW,315,1.1,0.0,63,0.00,CLR,,0.00,WeatherDisplay:10.37,2013-04-28 07:17:00,
2013-04-28 03:22:00,53.4,41.5,30.20,SW,225,2.3,2.3,64,0.00,CLR,,0.00,WeatherDisplay:10.37,2013-04-28 07:22:00,
2013-04-28 03:27:00,53.4,41.5,30.20,NW,315,2.3,2.3,64,0.00,CLR,,0.00,WeatherDisplay:10.37,2013-04-28 07:27:00,
2013-04-28 03:32:00,53.8,41.5,30.20,South,180,1.1,0.0,63,0.00,CLR,,0.00,WeatherDisplay:10.37,2013-04-28 07:32:00,
2013-04-28 03:37:00,53.8,41.5,30.20,South,180,1.1,0.0,63,0.00,CLR,,0.00,WeatherDisplay:10.37,2013-04-28 07:37:00,
2013-04-28 03:42:00,53.8,41.5,30.20,NE,45,1.1,0.0,63,0.00,CLR,,0.00,WeatherDisplay:10.37,2013-04-28 07:42:00,
2013-04-28 03:47:00,53.8,41.5,30.20,NW,315,1.1,0.0,63,0.00,CLR,,0.00,WeatherDisplay:10.37,2013-04-28 07:47:00,
2013-04-28 03:52:00,53.4,41.1,30.20,NW,315,1.1,0.0,63,0.00,CLR,,0.00,WeatherDisplay:10.37,2013-04-28 07:52:00,
2013-04-28 03:57:00,53.1,40.8,30.20,North,0,1.1,0.0,63,0.00,CLR,,0.00,WeatherDisplay:10.37,2013-04-28 07:57:00,
2013-04-28 04:02:00,52.9,40.6,30.19,SE,135,0.0,0.0,63,0.00,CLR,,0.00,WeatherDisplay:10.37,2013-04-28 08:02:00,
2013-04-28 04:07:00,52.9,41.0,30.19,West,270,1.1,0.0,64,0.00,CLR,,0.00,WeatherDisplay:10.37,2013-04-28 08:07:00,
2013-04-28 04:12:00,52.9,41.0,30.20,SE,135,1.1,0.0,64,0.00,CLR,,0.00,WeatherDisplay:10.37,2013-04-28 08:12:00,
2013-04-28 04:17:00,52.7,40.9,30.20,SE,135,1.1,0.0,64,0.00,CLR,,0.00,WeatherDisplay:10.37,2013-04-28 08:17:00,
2013-04-28 04:22:00,52.5,40.7,30.20,NE,45,1.1,0.0,64,0.00,CLR,,0.00,WeatherDisplay:10.37,2013-04-28 08:22:00,
2013-04-28 04:27:00,52.3,40.5,30.20,SE,135,0.0,0.0,64,0.00,CLR,,0.00,WeatherDisplay:10.37,2013-04-28 08:27:00,
2013-04-28 04:32:00,52.2,41.1,30.20,SE,135,1.1,0.0,66,0.00,CLR,,0.00,WeatherDisplay:10.37,2013-04-28 08:32:00,
2013-04-28 04:37:00,52.0,41.0,30.20,South,180,0.0,0.0,66,0.00,CLR,,0.00,WeatherDisplay:10.37,2013-04-28 08:37:00,
2013-04-28 04:42:00,51.8,40.8,30.20,NW,315,0.0,0.0,66,0.00,CLR,,0.00,WeatherDisplay:10.37,2013-04-28 08:42:00,
2013-04-28 04:47:00,51.6,40.6,30.20,East,90,0.0,0.0,66,0.00,CLR,,0.00,WeatherDisplay:10.37,2013-04-28 08:47:00,
2013-04-28 04:52:00,51.6,40.6,30.20,East,90,2.3,0.0,66,0.00,CLR,,0.00,WeatherDisplay:10.37,2013-04-28 08:52:00,
2013-04-28 04:57:00,51.6,40.6,30.20,NW,315,0.0,0.0,66,0.00,CLR,,0.00,WeatherDisplay:10.37,2013-04-28 08:57:00,
2013-04-28 05:02:00,51.4,40.1,30.20,East,90,1.1,0.0,65,0.00,CLR,,0.00,WeatherDisplay:10.37,2013-04-28 09:02:00,
2013-04-28 05:07:00,51.4,40.1,30.20,SE,135,1.1,0.0,65,0.00,CLR,,0.00,WeatherDisplay:10.37,2013-04-28 09:07:00,
2013-04-28 05:12:00,51.6,40.2,30.20,East,90,1.1,0.0,65,0.00,CLR,,0.00,WeatherDisplay:10.37,2013-04-28 09:12:00,
2013-04-28 05:17:00,51.6,40.2,30.20,North,0,3.5,3.5,65,0.00,CLR,,0.00,WeatherDisplay:10.37,2013-04-28 09:17:00,
2013-04-28 05:22:00,51.4,40.1,30.19,West,270,1.1,0.0,65,0.00,CLR,,0.00,WeatherDisplay:10.37,2013-04-28 09:22:00,
2013-04-28 05:27:00,51.4,39.7,30.19,NW,315,0.0,0.0,64,0.00,CLR,,0.00,WeatherDisplay:10.37,2013-04-28 09:27:00,
2013-04-28 05:32:00,51.3,39.5,30.19,SW,225,1.1,0.0,64,0.00,CLR,,0.00,WeatherDisplay:10.37,2013-04-28 09:32:00,
2013-04-28 05:37:00,51.3,39.5,30.19,SSE,158,3.5,3.5,64,0.00,CLR,,0.00,WeatherDisplay:10.37,2013-04-28 09:37:00,
2013-04-28 05:42:00,51.3,39.5,30.19,North,0,2.3,0.0,64,0.00,CLR,,0.00,WeatherDisplay:10.37,2013-04-28 09:42:00,
2013-04-28 05:47:00,51.3,39.5,30.19,NW,315,1.1,0.0,64,0.00,CLR,,0.00,WeatherDisplay:10.37,2013-04-28 09:47:00,
2013-04-28 05:52:00,51.4,39.7,30.19,East,90,1.6,0.0,64,0.00,CLR,,0.00,WeatherDisplay:10.37,2013-04-28 09:52:00,
2013-04-28 05:57:00,51.4,39.3,30.19,East,90,1.1,0.0,63,0.00,CLR,,0.00,WeatherDisplay:10.37,2013-04-28 09:57:00,
2013-04-28 06:02:00,51.6,39.4,30.20,NW,315,2.2,0.0,63,0.00,CLR,,0.00,WeatherDisplay:10.37,2013-04-28 10:02:00,
2013-04-28 06:07:00,51.6,39.4,30.20,SSW,202,1.1,0.0,63,0.00,CLR,,0.00,WeatherDisplay:10.37,2013-04-28 10:07:00,
2013-04-28 06:12:00,51.6,39.8,30.20,North,0,1.1,0.0,64,0.00,CLR,,0.00,WeatherDisplay:10.37,2013-04-28 10:12:00,
2013-04-28 06:17:00,51.4,39.7,30.20,East,90,1.1,0.0,64,0.00,CLR,,0.00,WeatherDisplay:10.37,2013-04-28 10:17:00,
2013-04-28 06:22:00,51.4,39.7,30.20,South,180,1.1,0.0,64,0.00,CLR,,0.00,WeatherDisplay:10.37,2013-04-28 10:22:00,
2013-04-28 06:27:00,51.3,39.9,30.20,East,90,1.1,0.0,65,0.00,CLR,,0.00,WeatherDisplay:10.37,2013-04-28 10:27:00,
2013-04-28 06:32:00,51.3,40.3,30.21,East,90,1.1,0.0,66,0.00,CLR,,0.00,WeatherDisplay:10.37,2013-04-28 10:32:00,
2013-04-28 06:37:00,51.3,40.7,30.20,ESE,112,2.3,0.0,67,0.00,CLR,,0.00,WeatherDisplay:10.37,2013-04-28 10:37:00,
2013-04-28 06:42:00,51.4,40.8,30.20,NE,45,1.1,1.1,67,0.00,CLR,,0.00,WeatherDisplay:10.37,2013-04-28 10:42:00,
2013-04-28 06:47:00,51.8,41.2,30.20,NW,315,1.1,0.0,67,0.00,CLR,,0.00,WeatherDisplay:10.37,2013-04-28 10:47:00,
2013-04-28 06:52:00,52.0,41.0,30.20,SW,225,1.1,0.0,66,0.00,CLR,,0.00,WeatherDisplay:10.37,2013-04-28 10:52:00,
2013-04-28 06:57:00,52.7,41.3,30.20,East,90,2.3,0.0,65,0.00,CLR,,0.00,WeatherDisplay:10.37,2013-04-28 10:57:00,
2013-04-28 07:02:00,54.0,42.1,30.21,SW,225,1.1,0.0,64,0.00,CLR,,0.00,WeatherDisplay:10.37,2013-04-28 11:02:00,
2013-04-28 07:07:00,55.8,42.1,30.21,North,0,2.3,0.0,60,0.00,CLR,,0.00,WeatherDisplay:10.37,2013-04-28 11:07:00,
2013-04-28 07:12:00,57.2,41.6,30.21,North,0,2.3,2.3,56,0.00,CLR,,0.00,WeatherDisplay:10.37,2013-04-28 11:12:00,
2013-04-28 07:17:00,57.2,41.2,30.20,NE,45,3.5,0.0,55,0.00,CLR,,0.00,WeatherDisplay:10.37,2013-04-28 11:17:00,
2013-04-28 07:22:00,57.0,41.5,30.20,West,270,3.5,0.0,56,0.00,CLR,,0.00,WeatherDisplay:10.37,2013-04-28 11:22:00,
2013-04-28 07:27:00,57.0,41.0,30.21,East,90,3.5,3.5,55,0.00,CLR,,0.00,WeatherDisplay:10.37,2013-04-28 11:27:00,
2013-04-28 07:32:00,56.7,40.7,30.21,SW,225,3.5,3.5,55,0.00,CLR,,0.00,WeatherDisplay:10.37,2013-04-28 11:32:00,
2013-04-28 07:37:00,56.7,40.2,30.21,East,90,3.5,3.5,54,0.00,CLR,,0.00,WeatherDisplay:10.37,2013-04-28 11:37:00,
2013-04-28 07:42:00,57.2,41.2,30.21,SE,135,2.2,0.0,55,0.00,CLR,,0.00,WeatherDisplay:10.37,2013-04-28 11:42:00,
2013-04-28 07:47:00,58.5,40.9,30.21,South,180,1.1,1.1,52,0.00,CLR,,0.00,WeatherDisplay:10.37,2013-04-28 11:47:00,
2013-04-28 07:52:00,59.9,41.7,30.21,North,0,1.1,0.0,51,0.00,CLR,,0.00,WeatherDisplay:10.37,2013-04-28 11:52:00,
2013-04-28 07:57:00,61.2,40.8,30.21,SW,225,3.5,3.5,47,0.00,CLR,,0.00,WeatherDisplay:10.37,2013-04-28 11:57:00,
2013-04-28 08:02:00,61.5,40.5,30.21,South,180,2.3,0.0,46,0.00,CLR,,0.00,WeatherDisplay:10.37,2013-04-28 12:02:00,
2013-04-28 08:07:00,62.6,40.9,30.21,NW,315,1.1,1.1,45,0.00,CLR,,0.00,WeatherDisplay:10.37,2013-04-28 12:07:00,
2013-04-28 08:12:00,63.1,40.9,30.21,North,0,2.3,2.3,44,0.00,CLR,,0.00,WeatherDisplay:10.37,2013-04-28 12:12:00,
2013-04-28 08:17:00,63.3,39.8,30.21,South,180,3.5,3.5,42,0.00,CLR,,0.00,WeatherDisplay:10.37,2013-04-28 12:17:00,
2013-04-28 08:22:00,63.3,40.4,30.21,NE,45,3.5,3.5,43,0.00,CLR,,0.00,WeatherDisplay:10.37,2013-04-28 12:22:00,
2013-04-28 08:27:00,63.0,40.7,30.21,East,90,5.8,5.8,44,0.00,CLR,,0.00,WeatherDisplay:10.37,2013-04-28 12:27:00,
2013-04-28 08:32:00,62.8,41.7,30.21,NE,45,3.5,3.5,46,0.00,CLR,,0.00,WeatherDisplay:10.37,2013-04-28 12:32:00,
2013-04-28 08:37:00,62.4,40.8,30.21,SW,225,3.5,3.5,45,0.00,CLR,,0.00,WeatherDisplay:10.37,2013-04-28 12:37:00,
2013-04-28 08:42:00,61.2,40.2,30.21,East,90,3.5,3.5,46,0.00,CLR,,0.00,WeatherDisplay:10.37,2013-04-28 12:42:00,
2013-04-28 08:47:00,60.4,40.6,30.21,SW,225,2.3,0.0,48,0.00,CLR,,0.00,WeatherDisplay:10.37,2013-04-28 12:47:00,
2013-04-28 08:52:00,59.7,40.5,30.21,South,180,3.5,0.0,49,0.00,CLR,,0.00,WeatherDisplay:10.37,2013-04-28 12:52:00,
2013-04-28 08:57:00,59.4,40.7,30.21,NE,45,3.5,3.5,50,0.00,CLR,,0.00,WeatherDisplay:10.37,2013-04-28 12:57:00,
2013-04-28 09:02:00,59.4,40.2,30.21,NW,315,3.5,3.5,49,0.00,BKN,,0.00,WeatherDisplay:10.37,2013-04-28 13:02:00,
2013-04-28 09:07:00,59.2,40.0,30.21,South,180,4.6,4.6,49,0.00,BKN,,0.00,WeatherDisplay:10.37,2013-04-28 13:07:00,
2013-04-28 09:12:00,59.2,40.0,30.21,SE,135,5.8,5.8,49,0.00,BKN,,0.00,WeatherDisplay:10.37,2013-04-28 13:12:00,
2013-04-28 09:17:00,59.4,40.2,30.21,ENE,68,5.8,5.8,49,0.00,BKN,,0.00,WeatherDisplay:10.37,2013-04-28 13:17:00,
2013-04-28 09:22:00,59.9,40.1,30.21,NE,45,3.5,3.5,48,0.00,BKN,,0.00,WeatherDisplay:10.37,2013-04-28 13:22:00,
2013-04-28 09:27:00,60.8,41.0,30.21,West,270,1.1,0.0,48,0.00,BKN,,0.00,WeatherDisplay:10.37,2013-04-28 13:27:00,
2013-04-28 09:32:00,61.3,40.9,30.21,East,90,4.6,4.6,47,0.00,BKN,,0.00,WeatherDisplay:10.37,2013-04-28 13:32:00,
2013-04-28 09:37:00,61.5,40.0,30.21,SW,225,3.5,3.5,45,0.00,BKN,,0.00,WeatherDisplay:10.37,2013-04-28 13:37:00,
2013-04-28 09:42:00,61.5,38.8,30.21,NE,45,4.6,4.6,43,0.00,BKN,,0.00,WeatherDisplay:10.37,2013-04-28 13:42:00,
2013-04-28 09:47:00,61.3,39.2,30.21,NW,315,5.8,5.8,44,0.00,BKN,,0.00,WeatherDisplay:10.37,2013-04-28 13:47:00,
2013-04-28 09:52:00,61.5,39.4,30.21,SE,135,2.3,0.0,44,0.00,BKN,,0.00,WeatherDisplay:10.37,2013-04-28 13:52:00,
2013-04-28 09:57:00,61.7,39.0,30.21,West,270,4.6,0.0,43,0.00,BKN,,0.00,WeatherDisplay:10.37,2013-04-28 13:57:00,
2013-04-28 10:02:00,61.5,38.8,30.21,SW,225,4.6,4.6,43,0.00,OVC,,0.00,WeatherDisplay:10.37,2013-04-28 14:02:00,
2013-04-28 10:07:00,61.3,38.0,30.21,West,270,3.5,3.5,42,0.00,OVC,,0.00,WeatherDisplay:10.37,2013-04-28 14:07:00,
2013-04-28 10:12:00,61.2,38.5,30.21,West,270,4.6,4.6,43,0.00,OVC,,0.00,WeatherDisplay:10.37,2013-04-28 14:12:00,
2013-04-28 10:17:00,61.0,37.1,30.21,West,270,4.6,4.6,41,0.00,OVC,,0.00,WeatherDisplay:10.37,2013-04-28 14:17:00,
2013-04-28 10:22:00,60.8,37.5,30.21,SW,225,6.9,6.9,42,0.00,OVC,,0.00,WeatherDisplay:10.37,2013-04-28 14:22:00,
2013-04-28 10:27:00,60.6,38.0,30.22,SE,135,4.6,4.6,43,0.00,OVC,,0.00,WeatherDisplay:10.37,2013-04-28 14:27:00,
2013-04-28 10:32:00,60.6,36.8,30.21,NE,45,3.5,3.5,41,0.00,OVC,,0.00,WeatherDisplay:10.37,2013-04-28 14:32:00,
2013-04-28 10:37:00,60.6,36.8,30.21,North,0,3.5,3.5,41,0.00,OVC,,0.00,WeatherDisplay:10.37,2013-04-28 14:37:00,
2013-04-28 10:42:00,60.4,36.6,30.21,NE,45,1.1,0.0,41,0.00,OVC,,0.00,WeatherDisplay:10.37,2013-04-28 14:42:00,
2013-04-28 10:47:00,60.3,37.1,30.22,NW,315,5.8,0.0,42,0.00,OVC,,0.00,WeatherDisplay:10.37,2013-04-28 14:47:00,
2013-04-28 10:52:00,60.3,37.7,30.22,NW,315,4.6,4.6,43,0.00,OVC,,0.00,WeatherDisplay:10.37,2013-04-28 14:52:00,
2013-04-28 10:57:00,59.9,37.3,30.22,South,180,5.8,5.8,43,0.00,OVC,,0.00,WeatherDisplay:10.37,2013-04-28 14:57:00,
2013-04-28 11:02:00,60.1,38.1,30.22,SE,135,2.3,5.4,44,0.00,OVC,,0.00,WeatherDisplay:10.37,2013-04-28 15:02:00,
2013-04-28 11:07:00,60.1,38.1,30.22,North,0,4.6,4.6,44,0.00,OVC,,0.00,WeatherDisplay:10.37,2013-04-28 15:07:00,
2013-04-28 11:12:00,60.3,38.8,30.22,NW,315,3.5,3.5,45,0.00,OVC,,0.00,WeatherDisplay:10.37,2013-04-28 15:12:00,
2013-04-28 11:17:00,60.6,38.6,30.22,NE,45,4.6,4.6,44,0.00,OVC,,0.00,WeatherDisplay:10.37,2013-04-28 15:17:00,
2013-04-28 11:22:00,60.6,38.6,30.22,West,270,3.5,3.5,44,0.00,OVC,,0.00,WeatherDisplay:10.37,2013-04-28 15:22:00,
2013-04-28 11:27:00,60.4,39.0,30.23,SE,135,2.3,2.3,45,0.00,OVC,,0.00,WeatherDisplay:10.37,2013-04-28 15:27:00,
2013-04-28 11:32:00,60.4,39.5,30.22,SW,225,2.3,2.3,46,0.00,OVC,,0.00,WeatherDisplay:10.37,2013-04-28 15:32:00,
2013-04-28 11:37:00,60.3,39.9,30.23,SW,225,3.5,3.5,47,0.00,OVC,,0.00,WeatherDisplay:10.37,2013-04-28 15:37:00,
2013-04-28 11:42:00,60.3,39.9,30.23,NE,45,3.5,0.0,47,0.00,OVC,,0.00,WeatherDisplay:10.37,2013-04-28 15:42:00,
2013-04-28 11:47:00,60.1,39.8,30.23,East,90,3.5,3.5,47,0.00,OVC,,0.00,WeatherDisplay:10.37,2013-04-28 15:47:00,
2013-04-28 11:52:00,60.1,40.3,30.23,SE,135,4.6,4.6,48,0.00,OVC,,0.00,WeatherDisplay:10.37,2013-04-28 15:52:00,
2013-04-28 11:57:00,59.9,40.7,30.22,South,180,4.6,4.6,49,0.00,OVC,,0.00,WeatherDisplay:10.37,2013-04-28 15:57:00,
2013-04-28 12:02:00,59.7,41.6,30.23,NW,315,5.8,5.8,51,0.00,-RA,,0.00,WeatherDisplay:10.37,2013-04-28 16:02:00,
2013-04-28 12:07:00,59.4,42.7,30.23,NE,45,3.5,3.5,54,0.00,-RA,,0.00,WeatherDisplay:10.37,2013-04-28 16:07:00,
2013-04-28 12:12:00,59.0,43.3,30.23,ESE,112,5.8,5.8,56,0.00,-RA,,0.00,WeatherDisplay:10.37,2013-04-28 16:12:00,
2013-04-28 12:17:00,58.1,43.8,30.22,West,270,3.5,3.5,59,0.00,-RA,,0.00,WeatherDisplay:10.37,2013-04-28 16:17:00,
2013-04-28 12:22:00,57.6,44.2,30.23,East,90,3.5,3.5,61,0.00,-RA,,0.00,WeatherDisplay:10.37,2013-04-28 16:22:00,
2013-04-28 12:27:00,57.2,45.1,30.22,SE,135,3.5,3.5,64,0.00,-RA,,0.00,WeatherDisplay:10.37,2013-04-28 16:27:00,
2013-04-28 12:32:00,57.0,45.4,30.22,ENE,68,2.3,0.0,65,0.00,-RA,,0.00,WeatherDisplay:10.37,2013-04-28 16:32:00,
2013-04-28 12:37:00,56.7,45.8,30.22,North,0,1.1,0.0,67,0.00,-RA,,0.00,WeatherDisplay:10.37,2013-04-28 16:37:00,
2013-04-28 12:42:00,56.5,46.4,30.22,SE,135,2.3,2.3,69,0.01,-RA,,0.01,WeatherDisplay:10.37,2013-04-28 16:42:00,
2013-04-28 12:47:00,56.1,46.5,30.22,SW,225,3.1,3.1,70,0.01,-RA,,0.01,WeatherDisplay:10.37,2013-04-28 16:47:00,
2013-04-28 12:52:00,55.9,47.0,30.22,SE,135,2.3,2.3,72,0.01,-RA,,0.01,WeatherDisplay:10.37,2013-04-28 16:52:00,
2013-04-28 12:57:00,55.8,47.6,30.22,ESE,112,3.5,3.5,74,0.01,-RA,,0.01,WeatherDisplay:10.37,2013-04-28 16:57:00,
2013-04-28 13:02:00,55.6,47.8,30.22,SW,225,2.3,2.3,75,0.01,-RA,,0.01,WeatherDisplay:10.37,2013-04-28 17:02:00,
2013-04-28 13:07:00,55.6,48.1,30.22,West,270,1.1,1.1,76,0.01,-RA,,0.01,WeatherDisplay:10.37,2013-04-28 17:07:00,
2013-04-28 13:12:00,55.6,48.5,30.22,SW,225,1.1,0.0,77,0.01,-RA,,0.01,WeatherDisplay:10.37,2013-04-28 17:12:00,
2013-04-28 13:17:00,55.6,48.8,30.22,SE,135,2.3,2.3,78,0.02,-RA,,0.02,WeatherDisplay:10.37,2013-04-28 17:17:00,
2013-04-28 13:22:00,55.2,48.8,30.22,NE,45,2.3,0.0,79,0.02,-RA,,0.02,WeatherDisplay:10.37,2013-04-28 17:22:00,
2013-04-28 13:27:00,55.0,49.0,30.23,North,0,1.1,0.0,80,0.02,-RA,,0.02,WeatherDisplay:10.37,2013-04-28 17:27:00,
2013-04-28 13:32:00,54.9,49.1,30.22,East,90,2.3,2.3,81,0.04,-RA,,0.04,WeatherDisplay:10.37,2013-04-28 17:32:00,
2013-04-28 13:37:00,54.7,49.3,30.22,NE,45,1.1,0.0,82,0.04,-RA,,0.04,WeatherDisplay:10.37,2013-04-28 17:37:00,
2013-04-28 13:42:00,54.7,49.6,30.22,North,0,1.1,0.0,83,0.02,-RA,,0.04,WeatherDisplay:10.37,2013-04-28 17:42:00,
2013-04-28 13:47:00,54.5,49.4,30.22,West,270,3.5,3.5,83,0.02,-RA,,0.04,WeatherDisplay:10.37,2013-04-28 17:47:00,
2013-04-28 13:52:00,54.3,49.6,30.22,North,0,1.1,0.0,84,0.04,-RA,,0.05,WeatherDisplay:10.37,2013-04-28 17:52:00,
2013-04-28 13:57:00,54.1,49.4,30.22,NE,45,3.5,3.5,84,0.04,-RA,,0.05,WeatherDisplay:10.37,2013-04-28 17:57:00,
2013-04-28 14:02:00,53.6,49.2,30.22,West,270,4.6,4.6,85,0.05,-RA,,0.06,WeatherDisplay:10.37,2013-04-28 18:02:00,
2013-04-28 14:07:00,53.4,49.0,30.22,NE,45,1.1,0.0,85,0.05,-RA,,0.06,WeatherDisplay:10.37,2013-04-28 18:07:00,
2013-04-28 14:12:00,53.4,49.3,30.22,East,90,1.1,0.0,86,0.06,-RA,,0.07,WeatherDisplay:10.37,2013-04-28 18:12:00,
2013-04-28 14:17:00,53.2,49.5,30.22,East,90,2.3,2.3,87,0.05,-RA,,0.07,WeatherDisplay:10.37,2013-04-28 18:17:00,
2013-04-28 14:22:00,53.2,49.5,30.22,NE,45,3.5,0.0,87,0.05,-RA,,0.07,WeatherDisplay:10.37,2013-04-28 18:22:00,
2013-04-28 14:27:00,53.1,49.6,30.22,NW,315,2.3,2.3,88,0.06,-RA,,0.08,WeatherDisplay:10.37,2013-04-28 18:27:00,
2013-04-28 14:32:00,52.9,50.0,30.22,SE,135,3.5,3.5,90,0.05,-RA,,0.08,WeatherDisplay:10.37,2013-04-28 18:32:00,
2013-04-28 14:37:00,52.9,50.3,30.22,East,90,1.1,1.1,91,0.06,-RA,,0.09,WeatherDisplay:10.37,2013-04-28 18:37:00,
2013-04-28 14:42:00,52.7,50.4,30.22,East,90,1.1,0.0,92,0.06,-RA,,0.09,WeatherDisplay:10.37,2013-04-28 18:42:00,
2013-04-28 14:47:00,52.7,50.4,30.21,South,180,1.1,0.0,92,0.07,-RA,,0.11,WeatherDisplay:10.37,2013-04-28 18:47:00,
2013-04-28 14:52:00,52.7,50.4,30.21,NE,45,2.3,2.3,92,0.06,-RA,,0.11,WeatherDisplay:10.37,2013-04-28 18:52:00,
2013-04-28 14:57:00,52.9,50.9,30.21,West,270,1.1,0.0,93,0.06,-RA,,0.11,WeatherDisplay:10.37,2013-04-28 18:57:00,
2013-04-28 15:02:00,52.9,50.6,30.20,West,270,1.1,0.0,92,0.06,-RA,,0.12,WeatherDisplay:10.37,2013-04-28 19:02:00,
2013-04-28 15:07:00,53.1,50.8,30.20,SE,135,3.1,3.1,92,0.06,-RA,,0.12,WeatherDisplay:10.37,2013-04-28 19:07:00,
2013-04-28 15:12:00,53.1,51.4,30.20,NE,45,3.5,0.0,94,0.05,-RA,,0.12,WeatherDisplay:10.37,2013-04-28 19:12:00,
2013-04-28 15:17:00,53.1,51.1,30.19,East,90,3.5,0.0,93,0.05,-RA,,0.12,WeatherDisplay:10.37,2013-04-28 19:17:00,
2013-04-28 15:22:00,53.2,51.6,30.19,SE,135,3.5,3.5,94,0.05,-RA,,0.12,WeatherDisplay:10.37,2013-04-28 19:22:00,
2013-04-28 15:27:00,53.2,51.3,30.19,East,90,2.3,0.0,93,0.04,-RA,,0.12,WeatherDisplay:10.37,2013-04-28 19:27:00,
2013-04-28 15:32:00,53.4,51.4,30.19,North,0,3.5,3.5,93,0.04,-RA,,0.12,WeatherDisplay:10.37,2013-04-28 19:32:00,
2013-04-28 15:37:00,53.4,51.4,30.19,East,90,0.0,0.0,93,0.02,-RA,,0.12,WeatherDisplay:10.37,2013-04-28 19:37:00,
2013-04-28 15:42:00,53.4,51.2,30.19,East,90,3.5,3.5,92,0.04,-RA,,0.13,WeatherDisplay:10.37,2013-04-28 19:42:00,
2013-04-28 15:47:00,53.4,51.2,30.18,SE,135,3.5,3.5,92,0.02,-RA,,0.13,WeatherDisplay:10.37,2013-04-28 19:47:00,
2013-04-28 15:52:00,53.4,51.4,30.17,SE,135,2.3,2.3,93,0.02,-RA,,0.13,WeatherDisplay:10.37,2013-04-28 19:52:00,
2013-04-28 15:57:00,53.6,51.6,30.17,SW,225,2.3,0.0,93,0.02,-RA,,0.13,WeatherDisplay:10.37,2013-04-28 19:57:00,
2013-04-28 16:02:00,53.6,51.3,30.17,SE,135,1.1,1.1,92,0.01,-RA,,0.13,WeatherDisplay:10.37,2013-04-28 20:02:00,
2013-04-28 16:07:00,53.6,50.7,30.17,East,90,2.3,2.3,90,0.01,-RA,,0.13,WeatherDisplay:10.37,2013-04-28 20:07:00,
2013-04-28 16:12:00,53.6,50.7,30.17,West,270,0.0,0.0,90,0.01,-RA,,0.13,WeatherDisplay:10.37,2013-04-28 20:12:00,
2013-04-28 16:17:00,53.6,50.7,30.17,North,0,1.1,0.0,90,0.01,-RA,,0.13,WeatherDisplay:10.37,2013-04-28 20:17:00,
2013-04-28 16:22:00,53.4,50.3,30.17,NW,315,3.5,0.0,89,0.02,-RA,,0.14,WeatherDisplay:10.37,2013-04-28 20:22:00,
2013-04-28 16:27:00,53.2,50.1,30.17,SE,135,2.3,0.0,89,0.02,-RA,,0.14,WeatherDisplay:10.37,2013-04-28 20:27:00,
2013-04-28 16:32:00,52.9,50.0,30.16,East,90,1.1,0.0,90,0.02,-RA,,0.14,WeatherDisplay:10.37,2013-04-28 20:32:00,
2013-04-28 16:37:00,52.7,49.8,30.16,SE,135,2.3,2.3,90,0.02,-RA,,0.14,WeatherDisplay:10.37,2013-04-28 20:37:00,
2013-04-28 16:42:00,52.5,50.0,30.16,East,90,1.1,0.0,91,0.01,-RA,,0.14,WeatherDisplay:10.37,2013-04-28 20:42:00,
2013-04-28 16:47:00,52.5,50.3,30.16,SE,135,1.1,0.0,92,0.01,-RA,,0.14,WeatherDisplay:10.37,2013-04-28 20:47:00,
2013-04-28 16:52:00,52.3,50.1,30.16,NW,315,0.0,0.0,92,0.01,-RA,,0.14,WeatherDisplay:10.37,2013-04-28 20:52:00,
2013-04-28 16:57:00,52.3,50.1,30.16,SW,225,0.0,0.0,92,0.01,-RA,,0.14,WeatherDisplay:10.37,2013-04-28 20:57:00,
2013-04-28 17:02:00,52.3,50.1,30.16,SW,225,0.0,0.0,92,0.01,CLR,,0.14,WeatherDisplay:10.37,2013-04-28 21:02:00,
2013-04-28 17:07:00,52.2,49.9,30.16,ESE,112,0.0,0.0,92,0.01,CLR,,0.14,WeatherDisplay:10.37,2013-04-28 21:07:00,
2013-04-28 17:12:00,52.2,50.2,30.16,SE,135,0.0,0.0,93,0.01,CLR,,0.14,WeatherDisplay:10.37,2013-04-28 21:12:00,
2013-04-28 17:17:00,52.2,50.2,30.16,SE,135,0.0,0.0,93,0.01,CLR,,0.14,WeatherDisplay:10.37,2013-04-28 21:17:00,
2013-04-28 17:22:00,52.2,50.2,30.15,SE,135,0.0,0.0,93,0.00,CLR,,0.14,WeatherDisplay:10.37,2013-04-28 21:22:00,
2013-04-28 17:27:00,52.2,50.2,30.15,SE,135,0.0,0.0,93,0.00,CLR,,0.14,WeatherDisplay:10.37,2013-04-28 21:27:00,
2013-04-28 17:32:00,52.2,49.9,30.14,SE,135,0.0,0.0,92,0.00,CLR,,0.14,WeatherDisplay:10.37,2013-04-28 21:32:00,
2013-04-28 17:37:00,52.2,49.9,30.14,SE,135,0.0,0.0,92,0.00,CLR,,0.14,WeatherDisplay:10.37,2013-04-28 21:37:00,
2013-04-28 17:42:00,52.2,49.9,30.14,East,90,0.0,0.0,92,0.00,CLR,,0.14,WeatherDisplay:10.37,2013-04-28 21:42:00,
2013-04-28 17:47:00,52.3,50.4,30.14,SE,135,1.1,0.0,93,0.00,CLR,,0.14,WeatherDisplay:10.37,2013-04-28 21:47:00,
2013-04-28 17:52:00,52.3,50.4,30.14,SE,135,0.0,0.0,93,0.00,CLR,,0.14,WeatherDisplay:10.37,2013-04-28 21:52:00,
2013-04-28 17:57:00,52.5,50.6,30.13,SW,225,1.1,1.1,93,0.00,CLR,,0.14,WeatherDisplay:10.37,2013-04-28 21:57:00,
2013-04-28 18:02:00,52.7,50.7,30.13,SE,135,2.3,2.3,93,0.00,-RA,,0.14,WeatherDisplay:10.37,2013-04-28 22:02:00,
2013-04-28 18:07:00,52.9,50.6,30.13,SE,135,2.3,2.3,92,0.00,-RA,,0.14,WeatherDisplay:10.37,2013-04-28 22:07:00,
2013-04-28 18:12:00,53.1,50.8,30.13,East,90,2.3,0.0,92,0.00,-RA,,0.14,WeatherDisplay:10.37,2013-04-28 22:12:00,
2013-04-28 18:17:00,53.2,50.7,30.13,SE,135,2.3,2.3,91,0.00,-RA,,0.14,WeatherDisplay:10.37,2013-04-28 22:17:00,
2013-04-28 18:22:00,53.2,50.7,30.12,SE,135,1.1,0.0,91,0.00,-RA,,0.14,WeatherDisplay:10.37,2013-04-28 22:22:00,
2013-04-28 18:27:00,53.2,50.7,30.13,SW,225,0.0,0.0,91,0.00,-RA,,0.14,WeatherDisplay:10.37,2013-04-28 22:27:00,
2013-04-28 18:32:00,53.2,50.7,30.12,East,90,1.1,0.0,91,0.00,-RA,,0.14,WeatherDisplay:10.37,2013-04-28 22:32:00,
2013-04-28 18:37:00,53.2,50.7,30.12,East,90,0.0,0.0,91,0.00,-RA,,0.14,WeatherDisplay:10.37,2013-04-28 22:37:00,
2013-04-28 18:42:00,53.2,50.7,30.12,East,90,0.0,0.0,91,0.00,-RA,,0.14,WeatherDisplay:10.37,2013-04-28 22:42:00,
2013-04-28 18:47:00,53.1,50.5,30.12,East,90,0.0,0.0,91,0.00,-RA,,0.14,WeatherDisplay:10.37,2013-04-28 22:47:00,
2013-04-28 18:52:00,53.1,50.5,30.12,East,90,0.0,0.0,91,0.00,-RA,,0.14,WeatherDisplay:10.37,2013-04-28 22:52:00,
2013-04-28 18:57:00,53.1,50.8,30.12,East,90,0.0,0.0,92,0.00,-RA,,0.14,WeatherDisplay:10.37,2013-04-28 22:57:00,
2013-04-28 19:02:00,52.9,50.6,30.12,East,90,0.0,0.0,92,0.00,OVC,,0.14,WeatherDisplay:10.37,2013-04-28 23:02:00,
2013-04-28 19:07:00,52.9,50.6,30.11,East,90,1.6,1.6,92,0.00,OVC,,0.14,WeatherDisplay:10.37,2013-04-28 23:07:00,
2013-04-28 19:12:00,52.9,50.6,30.11,East,90,1.1,0.0,92,0.00,OVC,,0.14,WeatherDisplay:10.37,2013-04-28 23:12:00,
2013-04-28 19:17:00,52.9,50.6,30.11,North,0,0.0,0.0,92,0.00,OVC,,0.14,WeatherDisplay:10.37,2013-04-28 23:17:00,
2013-04-28 19:22:00,52.9,50.6,30.11,North,0,0.0,0.0,92,0.00,OVC,,0.14,WeatherDisplay:10.37,2013-04-28 23:22:00,
2013-04-28 19:27:00,53.1,50.8,30.11,East,90,0.0,0.0,92,0.00,OVC,,0.14,WeatherDisplay:10.37,2013-04-28 23:27:00,
2013-04-28 19:32:00,53.1,50.8,30.11,East,90,1.1,0.0,92,0.00,OVC,,0.14,WeatherDisplay:10.37,2013-04-28 23:32:00,
2013-04-28 19:37:00,53.1,50.5,30.11,East,90,0.0,0.0,91,0.00,OVC,,0.14,WeatherDisplay:10.37,2013-04-28 23:37:00,
2013-04-28 19:42:00,53.1,50.5,30.11,East,90,0.0,0.0,91,0.00,OVC,,0.14,WeatherDisplay:10.37,2013-04-28 23:42:00,
2013-04-28 19:47:00,53.1,50.8,30.11,East,90,3.5,3.5,92,0.00,OVC,,0.14,WeatherDisplay:10.37,2013-04-28 23:47:00,
2013-04-28 19:52:00,53.1,51.1,30.11,SE,135,1.1,0.0,93,0.00,OVC,,0.14,WeatherDisplay:10.37,2013-04-28 23:52:00,
2013-04-28 19:57:00,53.1,51.1,30.11,East,90,0.0,0.0,93,0.00,OVC,,0.14,WeatherDisplay:10.37,2013-04-28 23:57:00,
2013-04-28 20:02:00,53.1,51.1,30.11,East,90,0.0,0.0,93,0.00,OVC,,0.14,WeatherDisplay:10.37,2013-04-29 00:02:00,
2013-04-28 20:07:00,53.1,51.1,30.11,SE,135,0.0,0.0,93,0.00,OVC,,0.14,WeatherDisplay:10.37,2013-04-29 00:07:00,
2013-04-28 20:12:00,53.1,51.1,30.11,SE,135,0.0,0.0,93,0.00,OVC,,0.14,WeatherDisplay:10.37,2013-04-29 00:12:00,
2013-04-28 20:17:00,53.1,51.1,30.11,SE,135,0.0,0.0,93,0.00,OVC,,0.14,WeatherDisplay:10.37,2013-04-29 00:17:00,
2013-04-28 20:22:00,53.1,50.8,30.11,SE,135,0.0,0.0,92,0.00,OVC,,0.14,WeatherDisplay:10.37,2013-04-29 00:22:00,
2013-04-28 20:27:00,53.1,50.8,30.11,South,180,0.0,0.0,92,0.00,OVC,,0.14,WeatherDisplay:10.37,2013-04-29 00:27:00,
2013-04-28 20:32:00,53.1,51.1,30.11,NW,315,0.0,0.0,93,0.00,OVC,,0.14,WeatherDisplay:10.37,2013-04-29 00:32:00,
2013-04-28 20:37:00,53.1,51.1,30.12,NW,315,0.0,0.0,93,0.00,OVC,,0.14,WeatherDisplay:10.37,2013-04-29 00:37:00,
2013-04-28 20:42:00,53.1,51.1,30.12,NW,315,0.0,0.0,93,0.00,OVC,,0.14,WeatherDisplay:10.37,2013-04-29 00:42:00,
2013-04-28 20:47:00,53.1,51.1,30.12,West,270,0.0,0.0,93,0.00,OVC,,0.14,WeatherDisplay:10.37,2013-04-29 00:47:00,
2013-04-28 20:52:00,53.1,51.1,30.12,West,270,0.0,0.0,93,0.00,OVC,,0.14,WeatherDisplay:10.37,2013-04-29 00:52:00,
2013-04-28 20:57:00,53.1,51.4,30.12,West,270,0.0,0.0,94,0.00,OVC,,0.14,WeatherDisplay:10.37,2013-04-29 00:57:00,
2013-04-28 21:02:00,52.9,51.2,30.12,NE,45,0.0,0.0,94,0.00,OVC,,0.14,WeatherDisplay:10.37,2013-04-29 01:02:00,
2013-04-28 21:07:00,53.1,51.4,30.11,East,90,0.0,0.0,94,0.00,OVC,,0.14,WeatherDisplay:10.37,2013-04-29 01:07:00,
2013-04-28 21:12:00,52.9,51.2,30.11,East,90,0.0,0.0,94,0.00,OVC,,0.14,WeatherDisplay:10.37,2013-04-29 01:12:00,
2013-04-28 21:17:00,52.9,51.2,30.12,East,90,0.0,0.0,94,0.00,OVC,,0.14,WeatherDisplay:10.37,2013-04-29 01:17:00,
2013-04-28 21:22:00,52.9,51.2,30.12,West,270,0.0,0.0,94,0.00,OVC,,0.14,WeatherDisplay:10.37,2013-04-29 01:22:00,
2013-04-28 21:27:00,52.7,51.3,30.12,North,0,0.0,0.0,95,0.00,OVC,,0.14,WeatherDisplay:10.37,2013-04-29 01:27:00,
2013-04-28 21:32:00,52.9,51.5,30.12,SE,135,0.0,0.0,95,0.00,OVC,,0.14,WeatherDisplay:10.37,2013-04-29 01:32:00,
2013-04-28 21:37:00,52.9,51.2,30.12,SW,225,1.1,0.0,94,0.00,OVC,,0.14,WeatherDisplay:10.37,2013-04-29 01:37:00,
2013-04-28 21:42:00,52.9,51.2,30.12,SW,225,1.1,0.0,94,0.00,OVC,,0.14,WeatherDisplay:10.37,2013-04-29 01:42:00,
2013-04-28 21:47:00,52.9,51.2,30.12,SW,225,0.0,0.0,94,0.00,OVC,,0.14,WeatherDisplay:10.37,2013-04-29 01:47:00,
2013-04-28 21:52:00,52.9,51.2,30.12,SW,225,0.0,0.0,94,0.00,OVC,,0.14,WeatherDisplay:10.37,2013-04-29 01:52:00,
2013-04-28 21:57:00,52.9,51.2,30.13,North,0,0.0,0.0,94,0.00,OVC,,0.14,WeatherDisplay:10.37,2013-04-29 01:57:00,
2013-04-28 22:02:00,52.9,51.2,30.12,North,0,0.0,0.0,94,0.00,OVC,,0.14,WeatherDisplay:10.37,2013-04-29 02:02:00,
2013-04-28 22:07:00,52.9,51.2,30.12,SE,135,0.0,0.0,94,0.00,OVC,,0.14,WeatherDisplay:10.37,2013-04-29 02:07:00,
2013-04-28 22:12:00,52.9,51.2,30.12,SE,135,0.0,0.0,94,0.00,OVC,,0.14,WeatherDisplay:10.37,2013-04-29 02:12:00,
2013-04-28 22:17:00,53.1,51.4,30.12,SE,135,0.0,0.0,94,0.00,OVC,,0.14,WeatherDisplay:10.37,2013-04-29 02:17:00,
2013-04-28 22:22:00,52.9,51.2,30.12,West,270,0.0,0.0,94,0.00,OVC,,0.14,WeatherDisplay:10.37,2013-04-29 02:22:00,
2013-04-28 22:27:00,52.9,51.2,30.12,West,270,0.0,0.0,94,0.00,OVC,,0.14,WeatherDisplay:10.37,2013-04-29 02:27:00,
2013-04-28 22:32:00,52.9,51.2,30.12,SE,135,0.0,0.0,94,0.00,OVC,,0.14,WeatherDisplay:10.37,2013-04-29 02:32:00,
2013-04-28 22:37:00,53.1,51.1,30.11,SE,135,0.0,0.0,93,0.00,OVC,,0.14,WeatherDisplay:10.37,2013-04-29 02:37:00,
2013-04-28 22:42:00,53.2,51.3,30.11,East,90,0.0,0.0,93,0.00,OVC,,0.14,WeatherDisplay:10.37,2013-04-29 02:42:00,
2013-04-28 22:47:00,53.2,51.3,30.11,East,90,0.0,0.0,93,0.00,OVC,,0.14,WeatherDisplay:10.37,2013-04-29 02:47:00,
2013-04-28 22:52:00,53.2,51.0,30.11,SE,135,0.0,0.0,92,0.00,OVC,,0.14,WeatherDisplay:10.37,2013-04-29 02:52:00,
2013-04-28 22:57:00,53.2,50.7,30.11,SE,135,0.0,0.0,91,0.00,OVC,,0.14,WeatherDisplay:10.37,2013-04-29 02:57:00,
2013-04-28 23:02:00,53.4,50.6,30.11,East,90,0.0,0.0,90,0.00,OVC,,0.14,WeatherDisplay:10.37,2013-04-29 03:02:00,
2013-04-28 23:07:00,53.6,50.4,30.11,SE,135,0.0,0.0,89,0.00,OVC,,0.14,WeatherDisplay:10.37,2013-04-29 03:07:00,
2013-04-28 23:12:00,53.6,50.4,30.11,East,90,0.0,0.0,89,0.00,OVC,,0.14,WeatherDisplay:10.37,2013-04-29 03:12:00,
2013-04-28 23:17:00,53.6,50.4,30.11,West,270,0.0,0.0,89,0.00,OVC,,0.14,WeatherDisplay:10.37,2013-04-29 03:17:00,
2013-04-28 23:22:00,53.4,50.3,30.11,South,180,0.0,0.0,89,0.00,OVC,,0.14,WeatherDisplay:10.37,2013-04-29 03:22:00,
2013-04-28 23:27:00,53.6,50.4,30.11,East,90,1.1,0.0,89,0.00,OVC,,0.14,WeatherDisplay:10.37,2013-04-29 03:27:00,
2013-04-28 23:32:00,53.6,50.1,30.11,NW,315,1.1,0.0,88,0.00,OVC,,0.14,WeatherDisplay:10.37,2013-04-29 03:32:00,
2013-04-28 23:37:00,53.8,50.0,30.11,West,270,2.3,0.0,87,0.00,OVC,,0.14,WeatherDisplay:10.37,2013-04-29 03:37:00,
2013-04-28 23:42:00,54.1,49.7,30.11,NW,315,3.5,3.5,85,0.00,OVC,,0.14,WeatherDisplay:10.37,2013-04-29 03:42:00,
2013-04-28 23:47:00,54.3,49.9,30.11,SE,135,1.6,1.6,85,0.00,OVC,,0.14,WeatherDisplay:10.37,2013-04-29 03:47:00,
2013-04-28 23:52:00,54.3,49.9,30.11,South,180,1.1,0.0,85,0.00,OVC,,0.14,WeatherDisplay:10.37,2013-04-29 03:52:00,
2013-04-28 23:57:00,54.3,49.6,30.10,East,90,1.1,0.0,84,0.00,OVC,,0.14,WeatherDisplay:10.37,2013-04-29 03:57:00,